When you browse on this site, cookies collect data to enhance your experience and personalize the content and advertising you see.
Visit our Privacy Policy to learn more. By continuing to use the site, you agree to this use of cookies and data.
  • In Hungary
  • List of Countries
  • For 7 days
  • Water Temperature
  • Satellite Maps
  • Weather Map
  • News
  • Weather Widgets
  • user-avatar
    Login

    Hourly Weather Chuprovo

    Today, 21 November, Wednesday

    Time Temperature Precipitation Wind Pressure Humidity
    00:00 -3°C° 0.1 mm 6 mps 749 mmHg 72%
    01:00 -4°C° 0.1 mm 6 mps 750 mmHg 71%
    02:00 -4°C° 0.1 mm 6 mps 750 mmHg 69%
    03:00 -5°C° 0.1 mm 6 mps 751 mmHg 68%
    04:00 -5°C° 0 mm 6 mps 751 mmHg 68%
    05:00 -6°C° 0 mm 5 mps 752 mmHg 68%
    06:00 -6°C° 0 mm 5 mps 752 mmHg 69%
    07:00 -6°C° 0.1 mm 5 mps 752 mmHg 70%
    08:00 -6°C° 0.1 mm 5 mps 751 mmHg 72%
    09:00 -5°C° 0.1 mm 4 mps 751 mmHg 73%
    10:00 -6°C° 0.1 mm 5 mps 751 mmHg 71%
    11:00 -6°C° 0.1 mm 5 mps 751 mmHg 69%
    12:00 -6°C° 0.1 mm 5 mps 752 mmHg 67%
    13:00 -7°C° 0 mm 4 mps 751 mmHg 68%
    14:00 -7°C° 0 mm 4 mps 751 mmHg 69%
    15:00 -7°C° 0 mm 3 mps 751 mmHg 71%
    16:00 -7°C° 0 mm 3 mps 751 mmHg 73%
    17:00 -7°C° 0 mm 3 mps 751 mmHg 76%
    18:00 -6°C° 0 mm 2 mps 750 mmHg 78%
    19:00 -6°C° 0 mm 2 mps 750 mmHg 81%
    20:00 -6°C° 0 mm 2 mps 750 mmHg 85%
    21:00 -6°C° 0 mm 2 mps 749 mmHg 88%
    22:00 -6°C° 0.1 mm 2 mps 749 mmHg 89%
    23:00 -6°C° 0.1 mm 2 mps 748 mmHg 90%

    Tomorrow, 22 November, Thursday

    Time Temperature Precipitation Wind Pressure Humidity
    00:00 -4°C° 0.1 mm 1 mps 747 mmHg 92%
    01:00 -4°C° 0.3 mm 1 mps 747 mmHg 92%
    02:00 -4°C° 0.3 mm 1 mps 746 mmHg 93%
    03:00 -4°C° 0.3 mm 1 mps 746 mmHg 93%
    04:00 -4°C° 0.1 mm 1 mps 745 mmHg 93%
    05:00 -6°C° 0.1 mm 1 mps 744 mmHg 94%
    06:00 -6°C° 0.1 mm 1 mps 744 mmHg 94%
    07:00 -6°C° 0.2 mm 1 mps 743 mmHg 94%
    08:00 -6°C° 0.2 mm 2 mps 743 mmHg 93%
    09:00 -6°C° 0.2 mm 2 mps 742 mmHg 92%
    10:00 -7°C° 0.2 mm 3 mps 742 mmHg 88%
    11:00 -7°C° 0.2 mm 4 mps 742 mmHg 84%
    12:00 -7°C° 0.2 mm 5 mps 742 mmHg 80%
    13:00 -7°C° 0.1 mm 5 mps 742 mmHg 78%
    14:00 -8°C° 0.1 mm 5 mps 742 mmHg 75%
    15:00 -8°C° 0.1 mm 5 mps 742 mmHg 72%
    16:00 -10°C° 0.1 mm 5 mps 743 mmHg 73%
    17:00 -10°C° 0.1 mm 5 mps 744 mmHg 74%
    18:00 -10°C° 0.1 mm 5 mps 745 mmHg 75%
    19:00 -10°C° 0.1 mm 5 mps 745 mmHg 74%
    20:00 -10°C° 0.1 mm 5 mps 746 mmHg 74%
    21:00 -9°C° 0.1 mm 4 mps 747 mmHg 74%
    22:00 -10°C° 0 mm 4 mps 748 mmHg 74%
    23:00 -11°C° 0 mm 5 mps 749 mmHg 74%

    Day after tomorrow, 23 November, Friday

    Time Temperature Precipitation Wind Pressure Humidity
    00:00 -11°C° 0 mm 5 mps 750 mmHg 74%
    01:00 -10°C° 0 mm 4 mps 750 mmHg 77%
    02:00 -9°C° 0 mm 3 mps 751 mmHg 79%
    03:00 -10°C° 0 mm 3 mps 751 mmHg 81%
    04:00 -9°C° 0.1 mm 3 mps 751 mmHg 84%
    05:00 -9°C° 0.1 mm 3 mps 751 mmHg 86%
    06:00 -9°C° 0.1 mm 4 mps 751 mmHg 89%
    07:00 -8°C° 0 mm 3 mps 751 mmHg 90%
    08:00 -8°C° 0 mm 3 mps 751 mmHg 91%
    09:00 -7°C° 0 mm 3 mps 751 mmHg 93%
    10:00 -7°C° 0.2 mm 3 mps 750 mmHg 92%
    11:00 -6°C° 0.2 mm 3 mps 750 mmHg 91%
    12:00 -6°C° 0.2 mm 3 mps 750 mmHg 90%
    13:00 -6°C° 0.2 mm 3 mps 750 mmHg 91%
    14:00 -6°C° 0.2 mm 3 mps 750 mmHg 91%
    15:00 -6°C° 0.2 mm 3 mps 750 mmHg 92%
    16:00 -6°C° 0.1 mm 3 mps 749 mmHg 93%
    17:00 -5°C° 0.1 mm 2 mps 749 mmHg 93%
    18:00 -5°C° 0.1 mm 2 mps 749 mmHg 94%
    19:00 -5°C° 0.1 mm 2 mps 748 mmHg 94%
    20:00 -6°C° 0.1 mm 2 mps 748 mmHg 95%
    21:00 -6°C° 0.1 mm 2 mps 747 mmHg 95%
    22:00 -6°C° 0.1 mm 2 mps 747 mmHg 95%
    23:00 -6°C° 0.1 mm 2 mps 746 mmHg 95%

    24 November, Saturday

    Time Temperature Precipitation Wind Pressure Humidity
    00:00 -5°C° 0.1 mm 2 mps 746 mmHg 94%
    01:00 -5°C° 0.2 mm 2 mps 745 mmHg 94%
    02:00 -6°C° 0.2 mm 3 mps 744 mmHg 94%
    03:00 -6°C° 0.2 mm 3 mps 744 mmHg 93%
    04:00 -5°C° 0.5 mm 3 mps 743 mmHg 94%
    05:00 -5°C° 0.5 mm 3 mps 742 mmHg 94%
    06:00 -4°C° 0.5 mm 3 mps 741 mmHg 94%
    07:00 -4°C° 0.4 mm 3 mps 741 mmHg 94%
    08:00 -4°C° 0.4 mm 3 mps 740 mmHg 94%
    09:00 -4°C° 0.4 mm 3 mps 740 mmHg 94%
    10:00 -4°C° 0.3 mm 3 mps 740 mmHg 94%
    11:00 -4°C° 0.3 mm 3 mps 740 mmHg 93%
    12:00 -2°C° 0.3 mm 3 mps 739 mmHg 92%
    13:00 -3°C° 0.2 mm 2 mps 739 mmHg 93%
    14:00 -3°C° 0.2 mm 2 mps 739 mmHg 94%
    15:00 -3°C° 0.2 mm 2 mps 739 mmHg 95%
    16:00 -4°C° 0.1 mm 2 mps 739 mmHg 95%
    17:00 -4°C° 0.1 mm 2 mps 739 mmHg 96%
    18:00 -5°C° 0.1 mm 2 mps 740 mmHg 96%
    19:00 -5°C° 0 mm 2 mps 740 mmHg 96%
    20:00 -5°C° 0 mm 2 mps 740 mmHg 96%
    21:00 -4°C° 0 mm 1 mps 740 mmHg 96%
    22:00 -4°C° 0 mm 1 mps 740 mmHg 96%
    23:00 -3°C° 0 mm 1 mps 741 mmHg 96%

    25 November, Sunday

    Time Temperature Precipitation Wind Pressure Humidity
    00:00 -3°C° 0 mm 1 mps 741 mmHg 96%
    01:00 -3°C° 0 mm 1 mps 741 mmHg 96%
    02:00 -3°C° 0 mm 1 mps 742 mmHg 96%
    03:00 -3°C° 0 mm 1 mps 742 mmHg 96%
    04:00 -3°C° 0.1 mm 1 mps 742 mmHg 96%
    05:00 -3°C° 0.1 mm 1 mps 743 mmHg 96%
    06:00 -3°C° 0.1 mm 1 mps 743 mmHg 96%
    07:00 -3°C° 0.1 mm 1 mps 744 mmHg 96%
    08:00 -4°C° 0.1 mm 1 mps 744 mmHg 96%
    09:00 -6°C° 0.1 mm 2 mps 745 mmHg 95%
    10:00 -7°C° 0.1 mm 2 mps 745 mmHg 94%
    11:00 -7°C° 0.1 mm 2 mps 746 mmHg 93%
    12:00 -7°C° 0.1 mm 2 mps 747 mmHg 92%
    13:00 -8°C° 0.1 mm 2 mps 747 mmHg 92%
    14:00 -9°C° 0.1 mm 2 mps 748 mmHg 92%
    15:00 -9°C° 0.1 mm 2 mps 748 mmHg 92%
    16:00 -10°C° 0.1 mm 2 mps 749 mmHg 92%
    17:00 -10°C° 0.1 mm 2 mps 749 mmHg 92%
    18:00 -12°C° 0.1 mm 2 mps 750 mmHg 92%
    19:00 -12°C° 0.1 mm 2 mps 750 mmHg 92%
    20:00 -12°C° 0.1 mm 2 mps 750 mmHg 92%
    21:00 -13°C° 0.1 mm 2 mps 751 mmHg 92%
    22:00 -11°C° 0.1 mm 1 mps 751 mmHg 93%
    23:00 -11°C° 0.1 mm 1 mps 751 mmHg 93%

    26 November, Monday

    Time Temperature Precipitation Wind Pressure Humidity
    00:00 -11°C° 0.1 mm 1 mps 752 mmHg 93%
    01:00 -12°C° 0.1 mm 1 mps 752 mmHg 93%
    02:00 -12°C° 0.1 mm 1 mps 752 mmHg 94%
    03:00 -12°C° 0.1 mm 1 mps 752 mmHg 94%
    04:00 -12°C° 0.1 mm 1 mps 752 mmHg 94%
    05:00 -12°C° 0.1 mm 1 mps 752 mmHg 94%
    06:00 -12°C° 0.1 mm 1 mps 752 mmHg 94%
    07:00 -12°C° 0.1 mm 1 mps 752 mmHg 94%
    08:00 -12°C° 0.1 mm 1 mps 752 mmHg 94%
    09:00 -12°C° 0.1 mm 1 mps 752 mmHg 95%
    10:00 -12°C° 0.1 mm 1 mps 752 mmHg 94%
    11:00 -12°C° 0.1 mm 1 mps 752 mmHg 93%
    12:00 -12°C° 0.1 mm 1 mps 752 mmHg 92%
    13:00 -12°C° 0.1 mm 1 mps 752 mmHg 93%
    14:00 -12°C° 0.1 mm 1 mps 752 mmHg 94%
    15:00 -12°C° 0.1 mm 1 mps 752 mmHg 95%
    16:00 -12°C° 0 mm 1 mps 752 mmHg 95%
    17:00 -12°C° 0 mm 1 mps 752 mmHg 95%
    18:00 -12°C° 0 mm 1 mps 752 mmHg 96%
    19:00 -12°C° 0 mm 1 mps 752 mmHg 96%
    20:00 -12°C° 0 mm 1 mps 752 mmHg 96%
    21:00 -13°C° 0 mm 1 mps 753 mmHg 96%
    22:00 -13°C° 0 mm 1 mps 753 mmHg 96%
    23:00 -13°C° 0 mm 1 mps 753 mmHg 96%
    Show more